Location: Granada Hills
(34.2650°N, 118.5220°W)
Time: 01:31:08
(UTC-07:00)

deb Kosmos-1763 - Visible Passes

Search period start: 28 May 2017 00:00
Search period end: 07 June 2017 00:00
Orbit: 496 x 513 km, 74.0° (Epoch: 27 May)

Date Brightness Start Highest point End Pass type
(mag) Time Alt. Az. Time Alt. Az. Time Alt. Az.
28 May 7.2 00:32:18 14° NNW 00:32:18 14° NNW 00:33:03 10° N visible
29 May 7.1 00:13:29 16° NNW 00:13:29 16° NNW 00:14:29 10° N visible
29 May 6.9 23:54:36 18° N 23:54:36 18° N 23:55:51 10° N visible
30 May 6.6 23:35:40 22° N 23:35:40 22° N 23:37:12 10° N visible
31 May 6.2 23:16:38 26° N 23:16:38 26° N 23:18:31 10° N visible
01 Jun 5.7 22:57:31 33° N 22:57:31 33° N 22:59:48 10° NNE visible
02 Jun 5.1 22:38:18 44° N 22:38:18 44° N 22:41:03 10° NNE visible
03 Jun 4.3 22:18:56 63° NE 22:18:56 63° NE 22:22:16 10° NNE visible
04 Jun 4.1 21:59:24 62° SE 21:59:38 63° ESE 22:03:27 10° NNE visible
05 Jun 4.3 21:39:39 36° SSE 21:40:51 51° ESE 21:44:35 10° NNE visible
06 Jun 4.6 21:19:35 18° SSE 21:22:04 41° ESE 21:25:42 10° NNE visible
06 Jun 7.3 22:57:32 10° W 22:58:41 11° WNW 22:59:50 10° NW visible
